User: anonymous   Login
Location: Unspecified
(0.0000°N, 0.0000°E)
Time: 04:05:20
(UTC+00:00)
Language:

SOHLA-1 (MAIDO-1) - Orbit

View from above orbital plane
View from above orbital plane
View from above satellite
View from above satellite

Ground track
Ground track

The orbit data is extracted from the following two-line orbital elements,

1 33496U 09002E   18022.51119641 +.00000048 +00000-0 +16159-4 0  9995
2 33496 098.3395 182.3802 0007016 040.6158 319.5571 14.71739299482508
Epoch (UTC): 22 January 2018 12:16:07
Eccentricity: 0.0007016
inclination: 98.3395°
perigee height: 650 km
apogee height: 660 km
right ascension of ascending node: 182.3802°
argument of perigee: 40.6158°
revolutions per day: 14.71739299
mean anomaly at epoch: 319.5571°
orbit number at epoch: 48250

The dashed part of the orbit path shows where the satellite is in the earth's shadow,  

DLR